AZU2419 SBPS-SBGO

Flight info

Callsign AZU2419
Flight time 1h 32m
Altitude 36000
Route MUKOS DCT UBNED DCT OPGOL
Aircraft A20N/M-SDE2E3FGHIRWXY/LB1

Departure

Time 2026-04-25 15:43
Airport Porto Seguro International Airport (SBPS)

Arrival

Time 2026-04-25 17:15
Airport Santa Genoveva International Airport (SBGO)
Time Latitude Longitude Altitude Speed Heading
2026-04-25 15:10 -16.43853 -39.07610 198 ft 0 kts 345°
2026-04-25 15:32 -16.43860 -39.07608 170 ft 3 kts 314°
2026-04-25 15:33 -16.43864 -39.07602 170 ft 0 kts 293°
2026-04-25 15:36 -16.43854 -39.07626 171 ft 9 kts 296°
2026-04-25 15:36 -16.43818 -39.07650 171 ft 0 kts 345°
2026-04-25 15:38 -16.43794 -39.07656 172 ft 9 kts 345°
2026-04-25 15:39 -16.43751 -39.07713 173 ft 16 kts 268°
2026-04-25 15:39 -16.43785 -39.07851 173 ft 22 kts 254°
2026-04-25 15:39 -16.43826 -39.08002 173 ft 22 kts 254°
2026-04-25 15:39 -16.43867 -39.08150 175 ft 20 kts 254°
2026-04-25 15:40 -16.43905 -39.08289 175 ft 20 kts 254°
2026-04-25 15:40 -16.43918 -39.08336 175 ft 20 kts 254°
2026-04-25 15:40 -16.43979 -39.08559 178 ft 18 kts 256°
2026-04-25 15:40 -16.44011 -39.08685 180 ft 18 kts 255°
2026-04-25 15:41 -16.44044 -39.08805 182 ft 16 kts 253°
2026-04-25 15:41 -16.44056 -39.08914 193 ft 14 kts 275°
2026-04-25 15:41 -16.44060 -39.08988 190 ft 6 kts 206°
2026-04-25 15:41 -16.44080 -39.08984 191 ft 4 kts 138°
2026-04-25 15:42 -16.44081 -39.08937 189 ft 8 kts 74°
2026-04-25 15:42 -16.44079 -39.08931 186 ft 0 kts 74°
2026-04-25 15:42 -16.44078 -39.08928 185 ft 5 kts 74°
2026-04-25 15:42 -16.44016 -39.08698 180 ft 74 kts 74°
2026-04-25 15:43 -16.43791 -39.07871 210 ft 158 kts 75°
2026-04-25 15:43 -16.43464 -39.06671 792 ft 180 kts 76°
2026-04-25 15:43 -16.43104 -39.05385 1689 ft 198 kts 76°
2026-04-25 15:43 -16.42681 -39.03884 2089 ft 234 kts 75°
2026-04-25 15:44 -16.41866 -39.02338 2675 ft 256 kts 45°
2026-04-25 15:44 -16.40258 -39.01531 3544 ft 265 kts
2026-04-25 15:44 -16.38444 -39.01829 4457 ft 272 kts 334°
2026-04-25 15:44 -16.36944 -39.03053 5328 ft 278 kts 316°
2026-04-25 15:45 -16.35561 -39.04484 6220 ft 282 kts 316°
2026-04-25 15:45 -16.34110 -39.05873 7109 ft 284 kts 319°
2026-04-25 15:45 -16.32589 -39.07209 8032 ft 287 kts 321°
2026-04-25 15:45 -16.31575 -39.08102 8613 ft 290 kts 317°
2026-04-25 15:46 -16.30149 -39.10465 9859 ft 294 kts 284°
2026-04-25 15:46 -16.29920 -39.12602 10557 ft 305 kts 272°
2026-04-25 15:46 -16.29908 -39.14878 10975 ft 323 kts 269°
2026-04-25 15:46 -16.29933 -39.17246 11598 ft 331 kts 269°
2026-04-25 15:47 -16.29948 -39.19659 12336 ft 335 kts 270°
2026-04-25 15:47 -16.29952 -39.22088 13206 ft 336 kts 270°
2026-04-25 15:47 -16.29948 -39.24499 13972 ft 339 kts 270°
2026-04-25 15:47 -16.29939 -39.26963 14653 ft 344 kts 270°
2026-04-25 15:48 -16.29927 -39.29484 15194 ft 352 kts 270°
2026-04-25 15:48 -16.29913 -39.32093 15791 ft 359 kts 270°
2026-04-25 15:48 -16.29898 -39.34680 16370 ft 365 kts 270°
2026-04-25 15:48 -16.29882 -39.37340 16974 ft 370 kts 270°
2026-04-25 15:49 -16.29866 -39.40040 17556 ft 376 kts 270°
2026-04-25 15:49 -16.29848 -39.42788 18038 ft 384 kts 270°
2026-04-25 15:49 -16.29830 -39.45576 18599 ft 386 kts 270°
2026-04-25 15:49 -16.29812 -39.48382 19131 ft 388 kts 270°
2026-04-25 15:50 -16.29793 -39.51197 19673 ft 389 kts 269°
2026-04-25 15:50 -16.29773 -39.54024 20189 ft 392 kts 269°
2026-04-25 15:50 -16.29753 -39.56864 20709 ft 394 kts 269°
2026-04-25 15:50 -16.29733 -39.59728 21262 ft 396 kts 269°
2026-04-25 15:51 -16.29712 -39.62596 21830 ft 397 kts 269°
2026-04-25 15:51 -16.29697 -39.64542 22191 ft 399 kts 269°
2026-04-25 15:51 -16.29668 -39.68385 22881 ft 403 kts 269°
2026-04-25 15:51 -16.29646 -39.71315 23412 ft 407 kts 268°
2026-04-25 15:52 -16.29632 -39.74269 23886 ft 409 kts 267°
2026-04-25 15:52 -16.29786 -39.77234 24319 ft 411 kts 263°
2026-04-25 15:52 -16.30059 -39.80206 24765 ft 414 kts 262°
2026-04-25 15:52 -16.30395 -39.83190 25198 ft 417 kts 261°
2026-04-25 15:53 -16.30759 -39.86191 25641 ft 419 kts 261°
2026-04-25 15:53 -16.31130 -39.89212 26084 ft 422 kts 261°
2026-04-25 15:53 -16.31498 -39.92254 26511 ft 425 kts 261°
2026-04-25 15:53 -16.31861 -39.95319 26931 ft 428 kts 261°
2026-04-25 15:54 -16.32219 -39.98402 27337 ft 430 kts 261°
2026-04-25 15:54 -16.32576 -40.01503 27732 ft 433 kts 261°
2026-04-25 15:54 -16.32941 -40.04626 28115 ft 436 kts 261°
2026-04-25 15:54 -16.33307 -40.07769 28500 ft 439 kts 261°
2026-04-25 15:55 -16.33673 -40.10929 28853 ft 441 kts 261°
2026-04-25 15:55 -16.34037 -40.14107 29219 ft 444 kts 261°
2026-04-25 15:55 -16.34400 -40.17307 29602 ft 446 kts 262°
2026-04-25 15:55 -16.34763 -40.20522 29970 ft 449 kts 262°
2026-04-25 15:56 -16.35128 -40.23762 30287 ft 451 kts 262°
2026-04-25 15:56 -16.35491 -40.27016 30591 ft 454 kts 262°
2026-04-25 15:56 -16.35850 -40.30288 30897 ft 456 kts 262°
2026-04-25 15:56 -16.36204 -40.33535 31199 ft 458 kts 262°
2026-04-25 15:57 -16.36565 -40.36838 31535 ft 459 kts 262°
2026-04-25 15:57 -16.36926 -40.40134 31965 ft 458 kts 262°
2026-04-25 15:57 -16.37288 -40.43421 32405 ft 456 kts 262°
2026-04-25 15:57 -16.37650 -40.46696 32839 ft 455 kts 262°
2026-04-25 15:58 -16.38013 -40.49966 33251 ft 454 kts 262°
2026-04-25 15:58 -16.38375 -40.53226 33661 ft 453 kts 262°
2026-04-25 15:58 -16.38736 -40.56477 34068 ft 452 kts 263°
2026-04-25 15:58 -16.39096 -40.59723 34425 ft 451 kts 262°
2026-04-25 15:59 -16.39454 -40.62956 34806 ft 448 kts 262°
2026-04-25 15:59 -16.39810 -40.66173 35192 ft 446 kts 262°
2026-04-25 15:59 -16.40164 -40.69375 35559 ft 444 kts 262°
2026-04-25 15:59 -16.40515 -40.72565 35893 ft 443 kts 262°
2026-04-25 16:00 -16.40866 -40.75757 36018 ft 444 kts 262°
2026-04-25 16:00 -16.40984 -40.76830 36023 ft 443 kts 263°
2026-04-25 16:00 -16.41915 -40.85314 36038 ft 443 kts 262°
2026-04-25 16:01 -16.42611 -40.91686 36034 ft 442 kts 262°
2026-04-25 16:01 -16.43305 -40.98055 36031 ft 443 kts 262°
2026-04-25 16:02 -16.43999 -41.04432 36029 ft 443 kts 262°
2026-04-25 16:02 -16.44690 -41.10806 36028 ft 443 kts 262°
2026-04-25 16:03 -16.45379 -41.17183 36032 ft 443 kts 262°
2026-04-25 16:03 -16.46062 -41.23515 36031 ft 443 kts 263°
2026-04-25 16:04 -16.46747 -41.29893 36030 ft 443 kts 263°
2026-04-25 16:04 -16.47429 -41.36263 36028 ft 442 kts 263°
2026-04-25 16:05 -16.48110 -41.42634 36028 ft 443 kts 263°
2026-04-25 16:06 -16.49129 -41.52196 36023 ft 443 kts 263°
2026-04-25 16:06 -16.49805 -41.58575 36023 ft 443 kts 263°
2026-04-25 16:07 -16.50479 -41.64953 36020 ft 443 kts 263°
2026-04-25 16:07 -16.51152 -41.71334 36021 ft 443 kts 263°
2026-04-25 16:08 -16.51823 -41.77713 36011 ft 443 kts 263°
2026-04-25 16:08 -16.52491 -41.84089 36016 ft 443 kts 263°
2026-04-25 16:09 -16.53159 -41.90473 36014 ft 443 kts 263°
2026-04-25 16:09 -16.53824 -41.96861 36015 ft 443 kts 263°
2026-04-25 16:10 -16.54487 -42.03241 36016 ft 443 kts 263°
2026-04-25 16:10 -16.55149 -42.09631 36011 ft 443 kts 263°
2026-04-25 16:11 -16.55808 -42.16015 36010 ft 443 kts 263°
2026-04-25 16:11 -16.56465 -42.22393 36014 ft 443 kts 263°
2026-04-25 16:12 -16.57120 -42.28779 36012 ft 443 kts 263°
2026-04-25 16:12 -16.57774 -42.35163 36012 ft 443 kts 263°
2026-04-25 16:13 -16.58387 -42.41507 36013 ft 443 kts 265°
2026-04-25 16:13 -16.58833 -42.47918 36021 ft 443 kts 265°
2026-04-25 16:14 -16.59265 -42.54332 36023 ft 443 kts 265°
2026-04-25 16:14 -16.59699 -42.60744 36023 ft 443 kts 265°
2026-04-25 16:15 -16.60132 -42.67154 36022 ft 443 kts 265°
2026-04-25 16:15 -16.60565 -42.73570 36026 ft 444 kts 265°
2026-04-25 16:16 -16.60995 -42.79984 36027 ft 444 kts 265°
2026-04-25 16:16 -16.61424 -42.86404 36026 ft 444 kts 265°
2026-04-25 16:17 -16.61850 -42.92825 36026 ft 444 kts 266°
2026-04-25 16:17 -16.62276 -42.99251 36026 ft 444 kts 265°
2026-04-25 16:18 -16.62698 -43.05670 36023 ft 444 kts 265°
2026-04-25 16:18 -16.63117 -43.12060 36026 ft 445 kts 265°
2026-04-25 16:19 -16.63537 -43.18495 36027 ft 445 kts 266°
2026-04-25 16:19 -16.63955 -43.24927 36026 ft 445 kts 265°
2026-04-25 16:20 -16.64577 -43.34573 36025 ft 445 kts 265°
2026-04-25 16:21 -16.65195 -43.44221 36018 ft 445 kts 266°
2026-04-25 16:21 -16.65605 -43.50654 36031 ft 445 kts 266°
2026-04-25 16:22 -16.66013 -43.57102 36042 ft 445 kts 266°
2026-04-25 16:22 -16.66419 -43.63541 36054 ft 444 kts 266°
2026-04-25 16:23 -16.66822 -43.69959 36069 ft 443 kts 266°
2026-04-25 16:23 -16.67223 -43.76378 36075 ft 443 kts 266°
2026-04-25 16:24 -16.67621 -43.82793 36074 ft 443 kts 266°
2026-04-25 16:24 -16.68018 -43.89214 36075 ft 444 kts 266°
2026-04-25 16:25 -16.68413 -43.95638 36065 ft 444 kts 266°
2026-04-25 16:25 -16.68804 -44.02017 36053 ft 444 kts 266°
2026-04-25 16:26 -16.69195 -44.08445 36016 ft 444 kts 266°
2026-04-25 16:26 -16.69585 -44.14875 36016 ft 444 kts 266°
2026-04-25 16:27 -16.69972 -44.21307 36013 ft 444 kts 266°
2026-04-25 16:27 -16.70358 -44.27736 36013 ft 444 kts 266°
2026-04-25 16:28 -16.70741 -44.34171 36009 ft 445 kts 266°
2026-04-25 16:28 -16.71123 -44.40609 36007 ft 444 kts 266°
2026-04-25 16:29 -16.71502 -44.47031 36004 ft 443 kts 266°
2026-04-25 16:29 -16.71880 -44.53457 36004 ft 444 kts 266°
2026-04-25 16:30 -16.72255 -44.59882 36000 ft 444 kts 266°
2026-04-25 16:30 -16.72628 -44.66308 35999 ft 444 kts 266°
2026-04-25 16:31 -16.73000 -44.72750 35997 ft 445 kts 266°
2026-04-25 16:31 -16.73370 -44.79193 35996 ft 445 kts 266°
2026-04-25 16:32 -16.73611 -44.85639 35997 ft 446 kts 271°
2026-04-25 16:32 -16.73414 -44.92106 35996 ft 446 kts 272°
2026-04-25 16:33 -16.73163 -44.98566 35993 ft 446 kts 272°
2026-04-25 16:33 -16.72901 -45.05029 35993 ft 445 kts 272°
2026-04-25 16:34 -16.72638 -45.11440 35991 ft 445 kts 272°
2026-04-25 16:34 -16.72370 -45.17881 35990 ft 445 kts 272°
2026-04-25 16:35 -16.72100 -45.24331 35991 ft 445 kts 272°
2026-04-25 16:35 -16.71873 -45.29731 35991 ft 445 kts 272°
2026-04-25 16:36 -16.71599 -45.36180 35989 ft 445 kts 272°
2026-04-25 16:36 -16.71324 -45.42633 35991 ft 445 kts 272°
2026-04-25 16:37 -16.71046 -45.49091 35991 ft 446 kts 272°
2026-04-25 16:37 -16.70766 -45.55548 35993 ft 446 kts 272°
2026-04-25 16:38 -16.70484 -45.62006 35993 ft 446 kts 272°
2026-04-25 16:38 -16.70199 -45.68476 35993 ft 447 kts 272°
2026-04-25 16:39 -16.69914 -45.74915 35992 ft 448 kts 272°
2026-04-25 16:39 -16.69625 -45.81399 35989 ft 447 kts 272°
2026-04-25 16:40 -16.69334 -45.87879 35994 ft 448 kts 272°
2026-04-25 16:40 -16.69040 -45.94370 35993 ft 448 kts 272°
2026-04-25 16:41 -16.68745 -46.00852 35995 ft 447 kts 272°
2026-04-25 16:41 -16.68298 -46.10582 35994 ft 448 kts 272°
2026-04-25 16:42 -16.67998 -46.17064 35984 ft 448 kts 272°
2026-04-25 16:42 -16.67695 -46.23549 35988 ft 448 kts 272°
2026-04-25 16:43 -16.67391 -46.30030 35987 ft 447 kts 272°
2026-04-25 16:43 -16.67085 -46.36518 35985 ft 448 kts 272°
2026-04-25 16:44 -16.66776 -46.42996 35985 ft 447 kts 273°
2026-04-25 16:44 -16.66466 -46.49481 35982 ft 448 kts 273°
2026-04-25 16:45 -16.66153 -46.55975 35981 ft 449 kts 273°
2026-04-25 16:45 -16.65838 -46.62471 35983 ft 448 kts 273°
2026-04-25 16:46 -16.65521 -46.68952 35980 ft 447 kts 273°
2026-04-25 16:46 -16.65257 -46.74338 35983 ft 447 kts 273°
2026-04-25 16:47 -16.64883 -46.81910 35987 ft 447 kts 273°
2026-04-25 16:47 -16.64562 -46.88346 35988 ft 447 kts 273°
2026-04-25 16:48 -16.64238 -46.94826 35989 ft 447 kts 273°
2026-04-25 16:48 -16.63912 -47.01306 35990 ft 447 kts 273°
2026-04-25 16:49 -16.63583 -47.07783 35991 ft 448 kts 273°
2026-04-25 16:49 -16.63253 -47.14264 35994 ft 448 kts 273°
2026-04-25 16:50 -16.62920 -47.20747 35993 ft 448 kts 273°
2026-04-25 16:50 -16.62585 -47.27227 35994 ft 448 kts 273°
2026-04-25 16:51 -16.62249 -47.33709 35946 ft 448 kts 273°
2026-04-25 16:51 -16.62080 -47.36943 35704 ft 447 kts 273°
2026-04-25 16:51 -16.61968 -47.39088 35547 ft 448 kts 273°
2026-04-25 16:52 -16.61740 -47.43430 35230 ft 449 kts 273°
2026-04-25 16:52 -16.61568 -47.46690 34995 ft 450 kts 273°
2026-04-25 16:52 -16.61396 -47.49955 34764 ft 451 kts 273°
2026-04-25 16:52 -16.61223 -47.53221 34534 ft 452 kts 273°
2026-04-25 16:53 -16.60874 -47.59786 34075 ft 454 kts 273°
2026-04-25 16:53 -16.60698 -47.63076 33824 ft 455 kts 273°
2026-04-25 16:53 -16.60522 -47.66364 33568 ft 455 kts 273°
2026-04-25 16:54 -16.60345 -47.69660 33311 ft 454 kts 273°
2026-04-25 16:54 -16.60168 -47.72941 33057 ft 453 kts 273°
2026-04-25 16:54 -16.59991 -47.76211 32806 ft 451 kts 273°
2026-04-25 16:54 -16.59819 -47.79469 32560 ft 449 kts 272°
2026-04-25 16:55 -16.59648 -47.82709 32315 ft 447 kts 272°
2026-04-25 16:55 -16.59475 -47.85943 32072 ft 445 kts 272°
2026-04-25 16:55 -16.59302 -47.89157 31832 ft 444 kts 273°
2026-04-25 16:55 -16.59125 -47.92362 31336 ft 443 kts 272°
2026-04-25 16:56 -16.58948 -47.95561 30750 ft 438 kts 272°
2026-04-25 16:56 -16.58773 -47.98705 30184 ft 432 kts 272°
2026-04-25 16:56 -16.58601 -48.01819 29541 ft 429 kts 272°
2026-04-25 16:56 -16.58429 -48.04912 28894 ft 427 kts 272°
2026-04-25 16:57 -16.58257 -48.08002 28261 ft 427 kts 272°
2026-04-25 16:57 -16.58143 -48.10050 27847 ft 427 kts 272°
2026-04-25 16:57 -16.57915 -48.14136 27031 ft 427 kts 273°
2026-04-25 16:57 -16.57740 -48.17265 26425 ft 426 kts 273°
2026-04-25 16:58 -16.57570 -48.20302 25842 ft 424 kts 273°
2026-04-25 16:58 -16.57397 -48.23333 25271 ft 414 kts 273°
2026-04-25 16:58 -16.57228 -48.26301 24719 ft 406 kts 273°
2026-04-25 16:58 -16.57064 -48.29196 24169 ft 397 kts 273°
2026-04-25 16:59 -16.56901 -48.32054 23767 ft 391 kts 273°
2026-04-25 16:59 -16.56741 -48.34859 23547 ft 386 kts 273°
2026-04-25 16:59 -16.56582 -48.37643 23296 ft 385 kts 273°
2026-04-25 16:59 -16.56422 -48.40424 23043 ft 384 kts 273°
2026-04-25 17:00 -16.56263 -48.43204 22792 ft 383 kts 273°
2026-04-25 17:00 -16.56104 -48.45962 22606 ft 381 kts 273°
2026-04-25 17:00 -16.55944 -48.48717 22295 ft 380 kts 273°
2026-04-25 17:00 -16.55783 -48.51464 21734 ft 380 kts 273°
2026-04-25 17:01 -16.55623 -48.54215 21154 ft 380 kts 273°
2026-04-25 17:01 -16.55463 -48.56965 20582 ft 380 kts 272°
2026-04-25 17:01 -16.55303 -48.59710 20038 ft 379 kts 273°
2026-04-25 17:01 -16.55145 -48.62444 19554 ft 376 kts 272°
2026-04-25 17:02 -16.55221 -48.65146 19077 ft 369 kts 261°
2026-04-25 17:02 -16.55717 -48.67720 18762 ft 356 kts 256°
2026-04-25 17:02 -16.56300 -48.70219 18546 ft 355 kts 255°
2026-04-25 17:02 -16.56895 -48.72713 18331 ft 354 kts 255°
2026-04-25 17:03 -16.57487 -48.75199 18080 ft 353 kts 255°
2026-04-25 17:03 -16.58072 -48.77672 17830 ft 351 kts 255°
2026-04-25 17:03 -16.58653 -48.80141 17574 ft 349 kts 255°
2026-04-25 17:03 -16.59228 -48.82593 17322 ft 348 kts 255°
2026-04-25 17:04 -16.59801 -48.85035 17076 ft 346 kts 256°
2026-04-25 17:04 -16.60363 -48.87438 16834 ft 345 kts 256°
2026-04-25 17:04 -16.60933 -48.89875 16550 ft 339 kts 256°
2026-04-25 17:04 -16.61482 -48.92227 16119 ft 338 kts 256°
2026-04-25 17:05 -16.62044 -48.94633 15626 ft 337 kts 256°
2026-04-25 17:05 -16.63017 -48.99353 14671 ft 335 kts 266°
2026-04-25 17:05 -16.62781 -49.01748 14203 ft 334 kts 287°
2026-04-25 17:06 -16.61830 -49.03948 13705 ft 333 kts 298°
2026-04-25 17:06 -16.60674 -49.06034 13188 ft 331 kts 300°
2026-04-25 17:06 -16.59497 -49.08090 12718 ft 328 kts 300°
2026-04-25 17:06 -16.58335 -49.10125 12247 ft 325 kts 300°
2026-04-25 17:07 -16.57186 -49.12151 11778 ft 323 kts 300°
2026-04-25 17:07 -16.56051 -49.14159 11321 ft 321 kts 300°
2026-04-25 17:07 -16.54924 -49.16158 10863 ft 319 kts 299°
2026-04-25 17:07 -16.53811 -49.18136 10573 ft 311 kts 300°
2026-04-25 17:08 -16.52738 -49.20043 10360 ft 301 kts 299°
2026-04-25 17:08 -16.51687 -49.21911 9945 ft 299 kts 300°
2026-04-25 17:08 -16.50638 -49.23778 9485 ft 298 kts 300°
2026-04-25 17:08 -16.49599 -49.25627 9110 ft 291 kts 300°
2026-04-25 17:09 -16.48606 -49.27391 8908 ft 274 kts 300°
2026-04-25 17:09 -16.47697 -49.29066 8727 ft 258 kts 294°
2026-04-25 17:09 -16.47194 -49.30789 8550 ft 240 kts 275°
2026-04-25 17:09 -16.47304 -49.32431 8438 ft 218 kts 254°
2026-04-25 17:10 -16.47906 -49.33804 8279 ft 200 kts 234°
2026-04-25 17:10 -16.48817 -49.34802 8120 ft 183 kts 217°
2026-04-25 17:10 -16.49841 -49.35508 7904 ft 172 kts 211°
2026-04-25 17:10 -16.50856 -49.36099 7750 ft 162 kts 205°
2026-04-25 17:11 -16.51887 -49.36487 7489 ft 155 kts 193°
2026-04-25 17:11 -16.52954 -49.36595 7172 ft 154 kts 178°
2026-04-25 17:11 -16.53987 -49.36408 6891 ft 150 kts 163°
2026-04-25 17:11 -16.54931 -49.35948 6567 ft 151 kts 148°
2026-04-25 17:12 -16.55733 -49.35242 6194 ft 153 kts 134°
2026-04-25 17:12 -16.56384 -49.34309 5619 ft 166 kts 123°
2026-04-25 17:12 -16.56994 -49.33234 4973 ft 178 kts 121°
2026-04-25 17:12 -16.57623 -49.32091 4395 ft 182 kts 121°
2026-04-25 17:13 -16.58236 -49.30973 4096 ft 170 kts 120°
2026-04-25 17:13 -16.58432 -49.30620 4041 ft 164 kts 121°
2026-04-25 17:13 -16.59322 -49.29016 3784 ft 148 kts 121°
2026-04-25 17:13 -16.59839 -49.28094 3596 ft 147 kts 120°
2026-04-25 17:14 -16.60358 -49.27170 3379 ft 147 kts 121°
2026-04-25 17:14 -16.60874 -49.26252 3175 ft 147 kts 120°
2026-04-25 17:14 -16.61392 -49.25333 2968 ft 147 kts 120°
2026-04-25 17:14 -16.61907 -49.24416 2777 ft 147 kts 120°
2026-04-25 17:15 -16.62421 -49.23501 2583 ft 146 kts 119°
2026-04-25 17:15 -16.62915 -49.22600 2453 ft 135 kts 120°
2026-04-25 17:15 -16.63303 -49.21915 2435 ft 69 kts 120°
2026-04-25 17:15 -16.63458 -49.21638 2450 ft 36 kts 121°
2026-04-25 17:16 -16.63542 -49.21496 2448 ft 20 kts 123°
2026-04-25 17:16 -16.63614 -49.21379 2448 ft 12 kts 129°
2026-04-25 17:16 -16.63633 -49.21378 2446 ft 5 kts 197°
2026-04-25 17:16 -16.63666 -49.21409 2450 ft 7 kts 235°
2026-04-25 17:17 -16.63676 -49.21432 2452 ft 0 kts 252°
2026-04-25 17:18 -16.63677 -49.21435 2446 ft 1 kts 252°
2026-04-25 17:18 -16.63688 -49.21470 2444 ft 10 kts 252°
2026-04-25 17:18 -16.63710 -49.21543 2439 ft 11 kts 259°
2026-04-25 17:19 -16.63688 -49.21628 2438 ft 15 kts 300°
2026-04-25 17:19 -16.63635 -49.21722 2436 ft 15 kts 300°
2026-04-25 17:19 -16.63580 -49.21819 2434 ft 16 kts 300°
2026-04-25 17:19 -16.63523 -49.21922 2436 ft 17 kts 300°
2026-04-25 17:20 -16.63463 -49.22030 2437 ft 18 kts 301°
2026-04-25 17:20 -16.63399 -49.22141 2435 ft 18 kts 301°
2026-04-25 17:20 -16.63334 -49.22258 2433 ft 18 kts 299°
2026-04-25 17:20 -16.63245 -49.22255 2436 ft 14 kts 30°
2026-04-25 17:21 -16.63162 -49.22220 2434 ft 11 kts 344°
2026-04-25 17:21 -16.63090 -49.22303 2437 ft 22 kts 302°
2026-04-25 17:21 -16.63011 -49.22437 2433 ft 22 kts 300°
2026-04-25 17:21 -16.62915 -49.22557 2433 ft 22 kts 322°
2026-04-25 17:22 -16.62795 -49.22644 2430 ft 19 kts 341°
2026-04-25 17:22 -16.62756 -49.22639 2432 ft 17 kts 33°
2026-04-25 17:22 -16.62806 -49.22467 2431 ft 15 kts 118°
2026-04-25 17:22 -16.62858 -49.22369 2434 ft 15 kts 120°
2026-04-25 17:23 -16.62912 -49.22274 2434 ft 15 kts 121°
2026-04-25 17:23 -16.62967 -49.22180 2432 ft 15 kts 121°
2026-04-25 17:23 -16.62991 -49.22080 2433 ft 14 kts 94°
2026-04-25 17:23 -16.62982 -49.21973 2436 ft 17 kts 79°
2026-04-25 17:24 -16.62956 -49.21847 2433 ft 20 kts 77°
2026-04-25 17:24 -16.62926 -49.21705 2435 ft 19 kts 77°
2026-04-25 17:24 -16.62957 -49.21624 2434 ft 11 kts 155°
2026-04-25 17:24 -16.62997 -49.21598 2436 ft 3 kts 104°
2026-04-25 17:25 -16.62988 -49.21558 2436 ft 7 kts 66°
2026-04-25 17:25 -16.62978 -49.21534 2437 ft 0 kts 65°